[[{"header":{"parameterUnit":"m.s-1","parameterCategory":1,"la1":30.2992,"la2":30.254,"lo1":-89.0895,"lo2":-89.0443,"dy":0.0025,"dx":0.0025,"nx":19,"ny":19,"refTime":"2026-05-18T09:00:00:Z","depth":0,"parameterNumber":2,"parameterNumberName":"U-component_of_WINDS"},"data":[0,0,0,-5.5792,-5.5795,-5.5941,-5.5941,-5.6135,-5.6137,0,0,0,0,0,0,0,0,0,0,0,-5.5756,-5.5758,-5.5792,-5.5796,-5.5941,-5.5941,-5.6135,-5.6137,0,0,0,0,0,0,0,0,0,0,0,-5.5756,-5.5757,-5.576,-5.5796,-5.5941,-5.5941,-5.6135,-5.6021,0,0,0,0,0,0,0,0,0,0,-5.5879,-5.5853,-5.5757,-5.576,-5.5797,-5.5941,-5.5941,-5.6016,-5.6029,-5.6074,0,-5.6118,0,-5.6131,-5.6151,-5.6152,0,0,0,-5.579,-5.5843,-5.5876,-5.576,-5.5799,-5.594,-5.5874,-5.6023,-5.6037,-5.6091,-5.6121,-5.6128,-5.6134,-5.6152,-5.6153,-5.6439,-5.644,0,0,-5.5782,-5.5786,-5.5866,-5.5886,-5.5866,-5.5869,-5.5878,-5.6031,-5.6063,-5.6121,-5.6132,-5.6137,-5.6154,-5.6155,-5.6437,-5.6439,0,0,0,-5.5763,-5.5781,-5.5809,-5.5878,-5.5904,-5.5873,-5.5884,-5.6057,-5.6066,-5.6134,-5.614,-5.6155,-5.6157,-5.6436,-5.6438,-5.652,0,0,0,-5.5757,-5.5769,-5.5806,-5.581,-5.5901,-5.5982,-5.5906,-5.6055,-5.6072,-5.6139,-5.6155,-5.6159,-5.6434,-5.6437,-5.6514,-5.6557,0,0,0,-5.5744,-5.5768,-5.5792,-5.581,-5.5873,-5.598,-5.5998,-5.6059,-5.6076,-5.6152,-5.616,-5.6433,-5.6436,-5.6509,-5.6549,-5.6632,0,0,0,-5.5731,-5.5863,-5.5793,-5.5943,-5.5872,-5.6032,-5.5997,-5.6115,-5.619,-5.6156,-5.6434,-5.6438,-5.6507,-5.6543,-5.6626,-5.67,-5.6733,0,0,-5.59,-5.5884,-5.5972,-5.5913,-5.6086,-5.6009,-5.6194,-5.6258,-5.6261,-5.6379,-5.6385,-5.6516,-5.6548,-5.663,-5.6918,-5.6944,0,0,0,-5.6027,-5.6089,-5.6135,-5.6207,-5.6261,-5.6308,-5.6344,-5.6368,-5.6468,-5.6323,-5.6571,-5.6589,-5.6637,-5.6672,-5.6694,-5.6734,-5.6455,-5.6455,-5.6454,-5.627,-5.6268,-5.6412,-5.6427,-5.6498,-5.6534,-5.659,-5.6627,-5.6604,-5.6663,-5.6696,-5.6871,-5.6913,-5.6929,-5.697,-5.6738,-5.6739,-5.6739,-5.6739,-5.6515,-5.6601,-5.6569,-5.6697,-5.6693,-5.68,-5.6839,-5.6819,-5.6916,-5.6846,-5.6888,-5.6808,-5.6957,-5.6993,-5.6745,-5.6744,-5.6743,-5.6743,-5.6742,-5.667,-5.6711,-5.674,-5.6843,-5.6923,-5.6934,-5.7029,-5.7023,-5.7017,-5.706,-5.7092,-5.7091,-5.7086,-5.7077,-5.7077,-5.7078,-5.7078,-5.7079,-5.7079,-5.6819,-5.6848,-5.693,-5.6998,-5.7043,-5.7101,-5.7139,-5.7183,-5.7229,-5.7216,-5.7216,-5.7185,-5.6974,-5.6919,-5.7088,-5.7087,-5.7086,-5.7085,-5.7084,-5.7062,-5.7006,-5.7132,-5.7177,-5.7256,-5.7334,-5.7326,-5.7415,-5.745,-5.7497,-5.7458,-5.7304,-5.7286,-5.7268,-5.7222,-5.746,-5.746,-5.746,-5.746,-5.719,-5.7182,-5.7308,-5.738,-5.7451,-5.7456,-5.7596,-5.7626,-5.7649,-5.767,-5.7636,-5.7575,-5.7558,-5.755,-5.7526,-5.7483,-5.7782,-5.7782,-5.7783,-5.7338,-5.7336,-5.7456,-5.7479,-5.754,-5.7592,-5.7722,-5.7804,-5.7819,-5.7795,-5.7685,-5.7672,-5.7575,-5.7544,-5.7514,-5.7478,-5.7398,0,0]},{"header":{"parameterUnit":"m.s-1","parameterCategory":1,"la1":30.2992,"la2":30.254,"lo1":-89.0895,"lo2":-89.0443,"dy":0.0025,"dx":0.0025,"nx":19,"ny":19,"refTime":"2026-05-18T09:00:00:Z","depth":0,"parameterNumber":3,"parameterNumberName":"V-component_of_WINDS"},"data":[0,0,0,3.5682,3.5684,3.5781,3.5782,3.5905,3.5907,0,0,0,0,0,0,0,0,0,0,0,3.5653,3.5654,3.5681,3.5684,3.5781,3.5782,3.5905,3.5907,0,0,0,0,0,0,0,0,0,0,0,3.5653,3.5654,3.5655,3.5684,3.5781,3.5782,3.5905,3.5831,0,0,0,0,0,0,0,0,0,0,3.5737,3.5712,3.5654,3.5655,3.5685,3.5781,3.5782,3.5828,3.5836,3.5861,0,3.5885,0,3.5898,3.5915,3.5915,0,0,0,3.5683,3.5705,3.5731,3.5655,3.5686,3.5781,3.5737,3.5832,3.5842,3.5872,3.5887,3.5892,3.59,3.5916,3.5916,3.6068,3.6069,0,0,3.5678,3.5671,3.5725,3.5737,3.5723,3.5734,3.574,3.5838,3.5853,3.5887,3.5894,3.5902,3.5917,3.5918,3.6068,3.6069,0,0,0,3.5663,3.5667,3.5691,3.5732,3.5749,3.5737,3.5744,3.5849,3.5857,3.5896,3.5904,3.5917,3.5919,3.6067,3.6068,3.6098,0,0,0,3.5659,3.5659,3.5688,3.5685,3.5748,3.5801,3.5752,3.585,3.5862,3.5903,3.5917,3.592,3.6066,3.6067,3.6096,3.6113,0,0,0,3.5647,3.5657,3.5672,3.5685,3.5727,3.5799,3.5813,3.5853,3.5866,3.5916,3.592,3.6065,3.6067,3.6094,3.611,3.6151,0,0,0,3.5631,3.5697,3.5672,3.5749,3.5726,3.5818,3.5812,3.5881,3.5927,3.5918,3.6066,3.6068,3.6093,3.6107,3.6148,3.6184,3.6198,0,0,3.571,3.5706,3.5752,3.5733,3.5828,3.5804,3.5903,3.5951,3.5961,3.6032,3.6035,3.6097,3.6109,3.615,3.6284,3.6295,0,0,0,3.5775,3.5807,3.5834,3.5878,3.5917,3.5951,3.5985,3.6003,3.6063,3.5997,3.6124,3.6131,3.6156,3.6173,3.6182,3.6203,3.6076,3.6076,3.6076,3.5877,3.5887,3.5963,3.5986,3.6029,3.6063,3.6098,3.6128,3.6125,3.6155,3.6176,3.6255,3.6275,3.6283,3.6304,3.6196,3.6196,3.6197,3.6197,3.5993,3.6041,3.6037,3.6109,3.612,3.6181,3.6216,3.6213,3.627,3.6241,3.6263,3.6229,3.6295,3.6314,3.6199,3.6199,3.6198,3.6198,3.6198,3.606,3.6085,3.6106,3.6171,3.6219,3.624,3.6295,3.6303,3.631,3.6332,3.6354,3.6354,3.6353,3.6342,3.6343,3.6343,3.6343,3.6343,3.6344,3.612,3.6144,3.619,3.6237,3.6266,3.6306,3.6342,3.637,3.6404,3.6405,3.6405,3.6399,3.63,3.6274,3.6348,3.6347,3.6347,3.6346,3.6346,3.6232,3.6208,3.628,3.6309,3.6365,3.6413,3.6422,3.648,3.6505,3.6532,3.6522,3.6448,3.6444,3.6436,3.6414,3.652,3.652,3.652,3.652,3.6288,3.6287,3.6362,3.6408,3.6454,3.6471,3.655,3.6578,3.6604,3.6619,3.6606,3.6578,3.657,3.6571,3.656,3.654,3.6676,3.6676,3.6676,3.6357,3.6361,3.6427,3.6453,3.6497,3.6535,3.661,3.6662,3.6686,3.6682,3.6632,3.6625,3.6581,3.6567,3.656,3.6543,3.6507,0,0]}]]